Theta_e
324 317 317 318 320 322 320 315 316 320 322 322 319 317 314 310 308 306 310 313 323 326 321 316 322 318 319 340 342 342 342 341 340 341 340 339 339 342 342 337 336 339 336
320 318 320 322 323 321 317 316 317 319 320 319 319 319 314 311 309 307 311 314 324 328 326 324 327 326 316 334 341 342 342 342 339 340 341 340 340 344 338 338 335 336 333
320 320 321 322 321 320 319 317 317 317 318 318 320 318 314 313 312 307 310 314 324 326 327 330 327 328 321 326 338 341 342 342 340 339 341 340 340 345 338 336 333 333 334
320 318 316 318 316 317 317 318 319 320 320 320 316 315 317 317 314 311 309 314 322 325 325 326 328 328 327 321 334 340 341 342 341 340 340 340 341 340 333 330 330 332 332
317 315 315 315 315 316 317 318 320 320 321 320 319 319 323 325 323 314 309 314 320 328 325 328 328 328 328 319 330 337 340 341 341 340 339 340 341 336 332 330 331 329 330
316 315 315 315 316 317 319 319 318 318 319 319 323 323 324 325 324 321 313 314 315 322 328 328 330 327 328 322 324 335 338 339 341 340 340 340 340 336 332 331 330 330 331
316 315 315 315 316 318 316 316 317 319 320 322 322 323 323 325 325 324 320 317 315 317 322 325 329 330 325 327 319 333 338 339 341 339 338 340 338 338 335 331 327 330 331
316 315 315 315 315 316 317 316 317 319 320 319 319 320 322 323 324 324 321 319 315 313 315 324 327 330 327 325 320 328 338 338 341 339 340 340 339 337 335 337 335 332 331
315 315 315 316 314 313 317 319 320 319 319 320 321 321 320 321 322 323 319 321 322 323 314 314 327 329 329 325 322 318 335 338 338 335 339 340 337 335 332 329 329 328 329
314 313 313 313 313 319 320 320 320 320 320 321 320 320 321 322 324 323 320 321 321 321 316 311 324 327 329 326 322 317 333 337 337 336 335 338 335 334 335 332 332 331 332
312 313 314 313 317 319 320 320 319 318 319 320 320 321 321 320 321 321 323 323 320 320 320 315 323 325 328 326 322 318 333 336 337 336 334 335 336 336 332 328 328 325 327
313 312 313 318 319 320 321 320 319 318 319 319 319 319 319 319 319 319 320 320 322 321 322 318 322 324 327 325 324 318 331 336 337 337 336 336 339 333 332 330 329 329 331
313 309 318 320 320 320 321 321 320 319 319 319 320 319 319 317 318 317 318 319 319 320 322 321 322 322 326 324 327 326 329 335 336 337 336 336 337 334 327 329 333 333 333
311 310 319 321 321 320 320 320 321 320 319 319 319 318 319 319 319 319 318 318 318 321 320 321 320 322 325 322 319 319 331 335 336 336 336 335 335 334 334 336 334 333 330
310 319 321 322 321 321 320 321 321 320 319 319 319 319 321 320 318 318 318 319 319 318 319 320 321 323 324 321 318 322 334 335 336 336 334 335 334 337 327 331 331 332 326
315 323 322 323 321 320 320 320 320 319 319 318 318 319 320 320 318 317 317 316 316 318 319 321 322 322 322 322 318 324 333 333 334 335 335 334 334 330 329 330 332 327 326
318 322 322 323 322 321 321 321 321 322 320 318 317 318 320 321 321 321 319 319 320 321 321 321 322 322 321 322 320 325 332 333 334 335 335 335 334 333 330 332 328 327 326
319 320 321 322 321 322 323 322 321 322 322 321 319 317 319 320 321 321 321 320 320 320 321 321 320 323 324 322 322 324 332 332 333 334 333 331 331 327 329 330 328 330 326
316 318 322 322 322 322 322 323 323 324 323 322 321 321 321 321 321 321 321 320 320 319 320 320 321 321 320 321 320 330 332 332 332 332 330 329 327 329 330 331 330 329 329
314 318 319 322 323 323 320 322 323 323 322 321 320 321 321 321 321 322 322 320 319 320 320 320 321 322 321 321 323 332 332 332 332 332 330 328 331 328 330 330 330 330 330
312 319 318 321 323 323 318 322 324 324 324 322 320 320 321 322 323 323 323 321 320 320 321 321 322 322 324 324 329 331 332 331 332 330 330 331 329 329 330 330 330 331 330
311 319 320 319 321 323 321 324 325 325 324 321 322 323 323 323 322 323 323 322 321 320 323 323 323 325 326 326 331 331 331 332 332 331 330 331 328 329 329 329 330 331 331
312 317 319 318 319 324 324 324 325 324 323 322 326 326 326 324 325 324 323 323 321 323 325 324 325 325 325 330 332 330 330 329 328 331 331 329 327 328 327 329 331 332 331
315 315 319 317 321 324 325 325 326 326 324 325 326 326 326 326 325 325 324 325 326 325 325 325 324 325 329 330 330 329 329 328 329 329 330 329 328 328 328 330 330 330 330
316 316 320 318 319 322 324 322 322 326 327 325 323 325 325 325 326 326 326 326 326 325 326 325 326 327 331 329 329 328 328 328 330 330 328 331 330 329 330 329 329 329 328
317 317 319 317 317 318 323 322 321 323 326 327 325 324 323 323 325 326 326 326 326 324 326 326 327 328 328 327 328 329 327 326 329 329 330 330 329 329 328 328 328 329 330
Wind_Speed
4 2 7 10 12 15 18 21 17 16 17 18 18 17 17 16 15 15 17 17 11 12 13 12 12 12 13 13 15 21 23 23 23 22 20 16 12 10 13 10 11 13 15
4 5 9 12 14 16 20 16 15 16 18 20 20 18 17 15 15 14 16 16 10 13 12 11 11 12 12 12 15 18 21 26 24 23 20 17 14 14 14 13 13 15 14
6 7 9 14 15 17 16 14 15 17 19 21 21 21 19 18 15 15 16 17 13 15 12 11 12 12 12 11 13 16 18 20 26 24 22 19 16 20 17 14 14 15 15
7 8 9 12 13 14 15 17 18 19 22 23 23 23 21 19 17 16 17 18 15 14 14 13 13 13 13 12 12 13 15 17 19 28 23 23 19 21 18 16 15 15 16
7 8 9 9 11 14 16 18 20 20 23 24 23 23 23 20 20 18 18 19 17 13 15 12 13 14 13 14 13 12 13 14 18 22 21 22 20 25 21 20 16 16 17
9 11 11 13 14 16 17 18 20 22 24 25 24 25 24 24 22 19 19 20 19 17 13 16 15 16 15 14 14 13 13 14 18 22 18 18 17 21 23 23 19 18 17
11 14 15 16 16 16 18 20 21 23 25 27 28 28 27 25 24 21 19 20 20 19 15 14 16 16 16 15 15 15 15 14 18 21 21 21 17 21 24 20 18 18 18
13 13 13 13 14 16 21 20 22 25 28 30 31 30 29 26 26 23 21 19 18 20 18 13 19 17 16 16 15 17 15 17 17 18 23 24 25 21 24 22 18 18 19
14 15 13 15 19 19 18 19 22 27 31 31 27 26 24 25 26 23 22 19 17 16 18 16 17 21 19 18 16 17 16 18 16 11 22 23 23 26 26 23 20 20 18
17 16 17 16 17 17 18 22 25 25 25 25 23 22 21 20 23 22 24 22 19 16 16 18 17 22 20 19 17 17 17 18 18 15 14 21 24 26 23 19 18 17 18
14 14 14 16 17 18 20 21 20 21 21 20 20 19 19 21 20 19 21 24 20 19 16 19 17 22 20 20 17 18 18 19 18 19 18 24 24 24 23 20 21 17 16
12 13 15 16 18 17 18 18 19 20 15 12 13 15 17 20 22 25 27 24 21 19 16 17 17 20 19 20 16 18 20 21 19 19 21 31 31 28 22 20 21 21 22
13 15 14 16 16 16 18 17 19 18 13 10 11 11 12 16 19 22 24 27 27 24 18 18 18 19 21 20 16 17 22 20 19 20 23 30 29 30 28 25 23 21 22
14 14 13 14 14 15 17 15 17 14 11 10 8 5 4 9 12 14 18 22 24 22 20 18 17 18 21 20 19 20 23 21 21 22 22 18 24 33 25 25 23 21 21
14 13 14 14 14 16 13 15 13 11 10 8 6 4 4 5 5 4 8 15 18 20 17 15 16 20 21 20 21 22 23 21 23 25 23 23 28 28 31 24 21 19 23
12 13 13 13 14 15 12 13 12 10 10 9 5 4 2 2 4 4 7 12 14 15 14 15 17 21 21 21 22 23 24 21 22 24 25 32 30 27 27 26 25 26 27
10 13 13 12 14 14 13 13 12 10 9 9 5 3 2 2 2 3 7 11 13 13 14 15 17 18 20 20 20 23 24 22 22 26 31 32 30 28 26 26 27 29 31
9 12 13 13 13 13 14 13 11 10 8 7 6 4 4 4 4 4 7 10 13 14 16 16 17 18 17 20 19 22 25 24 25 27 32 33 28 31 29 28 31 30 32
7 10 13 14 14 13 12 12 10 9 7 6 5 5 6 7 8 8 9 12 15 16 16 17 17 17 20 21 18 22 25 25 27 29 31 36 37 29 28 29 31 31 31
6 8 11 13 15 15 12 11 10 8 9 8 5 5 4 6 8 10 14 15 17 17 17 18 17 15 19 19 19 21 26 27 28 30 34 38 25 28 27 29 29 29 29
5 5 9 11 14 15 10 9 10 10 9 6 3 4 8 7 6 11 14 17 18 18 18 18 17 16 19 21 25 23 26 29 34 38 35 31 30 24 24 26 26 25 25
4 3 7 10 12 13 9 10 14 13 10 7 6 7 13 6 8 10 12 16 17 14 15 18 19 22 21 26 31 30 22 28 30 32 26 30 32 26 24 24 23 25 25
2 2 7 10 11 12 9 6 12 14 11 13 17 18 25 16 10 8 10 12 12 14 18 21 21 24 26 28 31 19 20 17 31 26 27 32 32 25 23 20 18 19 22
3 4 6 9 10 11 14 10 11 14 15 12 16 19 21 23 23 9 8 13 15 15 18 22 23 25 28 30 21 28 21 35 22 22 25 30 28 25 24 23 22 20 19
6 5 5 8 9 10 12 13 14 15 13 10 11 15 18 19 18 19 18 15 18 14 17 23 26 29 29 30 22 28 28 27 32 30 29 38 31 26 24 25 24 20 16
8 5 4 6 6 8 9 12 13 14 14 13 10 9 10 15 18 15 17 16 14 18 20 22 24 28 29 28 24 29 31 22 28 34 36 35 33 26 23 21 18 15 13
Wind_Direction
171 306 305 290 281 287 300 301 307 309 304 304 311 317 318 313 306 275 268 270 272 276 267 244 236 231 221 215 210 208 206 206 203 206 209 207 193 191 161 173 160 148 149
208 274 264 266 267 280 293 296 301 300 301 302 304 309 312 313 306 283 265 264 251 260 263 249 233 236 220 214 213 211 210 207 205 205 205 203 199 188 165 168 157 149 149
255 283 266 261 272 277 275 288 291 294 293 296 296 299 301 302 299 287 265 257 245 241 247 246 233 235 228 211 213 215 215 215 213 203 204 202 197 179 161 156 150 147 150
280 286 275 259 266 269 276 280 278 275 279 283 293 296 295 291 287 282 263 252 249 240 237 243 243 224 231 208 211 212 216 214 221 204 205 207 194 162 143 146 149 154 153
286 299 307 288 272 271 272 276 274 275 276 281 285 291 292 285 278 274 256 247 246 245 232 235 241 233 228 215 206 207 210 210 206 198 200 202 173 150 150 144 149 156 154
288 295 289 285 277 276 270 273 276 279 278 281 280 281 282 275 270 270 251 243 241 236 235 223 231 245 224 223 206 200 205 203 201 197 194 190 182 155 153 149 147 156 157
280 272 276 282 272 275 276 279 281 281 282 281 280 277 273 268 262 257 248 242 241 240 231 230 223 223 236 223 209 199 201 195 195 197 199 196 171 163 150 148 149 154 157
281 277 275 270 273 278 284 282 281 281 283 283 281 277 270 262 261 250 244 237 242 242 241 220 215 233 219 214 212 200 198 198 190 188 184 181 170 165 157 164 154 159 161
290 293 290 289 290 289 287 283 283 284 285 285 282 276 268 260 256 247 232 234 240 250 240 226 218 223 212 212 210 200 196 195 192 196 189 183 166 157 153 160 161 162 169
301 302 298 299 302 295 285 287 289 290 289 285 285 280 265 256 246 241 236 237 244 246 239 224 221 217 214 208 205 198 193 193 193 184 193 181 170 167 166 164 163 161 163
304 304 308 305 302 296 298 303 304 307 298 287 280 275 262 257 252 247 245 237 234 240 239 226 225 218 214 206 201 196 190 192 191 192 191 195 189 176 164 156 168 158 175
316 318 317 312 306 302 308 309 319 324 312 294 278 276 264 261 260 256 248 242 238 236 243 233 229 216 208 201 198 195 192 190 190 193 187 192 186 170 177 173 180 176 172
327 327 318 311 310 307 310 315 322 328 323 310 298 293 271 259 261 257 244 241 238 236 234 223 222 213 201 197 195 194 188 191 193 189 182 191 195 182 165 174 176 170 170
329 328 314 321 324 321 321 326 326 326 339 326 327 328 316 279 274 255 247 231 230 224 217 220 214 203 196 197 194 195 186 190 186 184 165 176 188 190 168 167 172 169 174
335 331 324 328 329 332 334 335 338 339 330 327 323 329 335 347 348 256 210 203 206 203 209 210 202 194 193 192 192 192 186 186 183 183 185 178 172 173 161 167 170 176 170
345 337 336 339 344 346 344 343 346 341 345 342 310 296 297 5 64 98 145 163 174 190 200 199 193 189 189 189 189 189 183 188 184 185 182 166 158 163 168 174 173 173 164
352 341 345 345 350 352 350 351 348 341 339 354 346 299 251 220 165 144 153 161 172 185 189 188 184 183 188 188 190 190 182 185 176 176 169 164 165 172 168 171 170 163 155
355 348 353 353 353 351 355 352 352 341 329 321 321 296 256 256 237 197 196 183 182 183 179 180 180 179 182 188 191 186 183 184 170 168 167 169 167 160 168 176 164 160 157
357 358 8 9 0 357 354 355 348 345 341 344 332 305 277 259 248 225 205 195 188 182 180 181 180 185 188 192 186 179 184 181 174 172 161 162 158 168 170 168 163 161 160
360 6 14 19 13 13 6 4 359 353 351 355 340 316 288 270 232 207 196 191 190 187 187 184 187 186 192 177 176 182 183 181 178 171 170 160 172 158 164 165 162 162 162
1 16 15 19 15 16 14 12 16 14 10 3 339 345 306 238 183 185 190 188 191 193 195 190 184 186 169 171 168 174 179 179 172 163 159 167 149 163 158 158 161 160 158
8 39 29 25 21 17 14 14 20 20 35 48 43 19 25 129 176 175 183 188 192 195 190 184 176 170 168 174 164 152 127 164 155 164 174 169 163 159 153 156 160 161 159
49 96 53 31 23 21 9 5 31 33 51 71 65 64 62 74 131 123 153 185 190 190 183 177 176 172 165 172 159 155 133 128 134 154 158 157 160 158 154 152 156 157 149
118 127 59 41 34 37 37 34 48 45 69 79 79 74 71 68 71 90 89 133 164 148 163 165 169 165 164 164 151 146 161 146 137 141 154 159 163 162 161 156 156 155 150
143 133 75 56 45 47 42 40 44 45 54 65 84 79 67 53 55 66 103 123 147 147 158 164 163 163 159 158 152 151 156 157 150 149 134 154 153 151 152 157 162 163 166
163 146 100 59 52 52 43 41 34 45 52 53 54 84 76 48 65 81 90 98 128 134 142 153 160 160 167 161 171 164 151 147 168 164 132 137 136 145 153 165 173 173 169